Weather History for West Palm Beach, FL

Change the Weather History Date:

Saturday, April 6, 2013

  Actual Average Record
Temperature  
Mean Temperature 69 °F 72 °F  
Max Temperature 79 °F 81 °F 93 °F (2009)
Min Temperature 58 °F 65 °F 38 °F (1920)
Degree Days  
Heating Degree Days 0 0  
Month to date heating degree days 0 0  
Since 1 July heating degree days 164 229  
Cooling Degree Days 4 8  
Month to date cooling degree days 54 45  
Year to date cooling degree days 525 473  
Growing Degree Days 18 (Base 50)    
Moisture  
Dew Point 59 °F    
Average Humidity 72    
Maximum Humidity 93    
Minimum Humidity 50    
Precipitation  
Precipitation 0.00 in 0.13 in 3.77 in (1937)
Month to date precipitation 1.92 0.84  
Year to date precipitation 6.08 11.38  
Snow  
Snow 0.00 in - - ()
Month to date snowfall 0.0  
Since 1 July snowfall 0.0  
Snow Depth 0.00 in    
Sea Level Pressure  
Sea Level Pressure 30.00 in    
Wind  
Wind Speed 12 mph (North)    
Max Wind Speed 20 mph    
Max Gust Speed 25 mph    
Visibility 10 miles    
Events      
T = Trace of Precipitation, MM = Missing Value Source: NWS Daily Summary

Daily Weather History Graph

Daily Weather History Graph

Search for Another Location

Airport:

Trip Planner

Search our weather history database for the weather conditions in past years. The results will help you decide how hot, cold, wet, or windy it might be!

Date:

Astronomy

Apr. 06, 2013 Rise Set
Actual Time 7:05 AM EDT 7:40 PM EDT
Civil Twilight 6:42 AM EDT 8:03 PM EDT
Nautical Twilight 6:14 AM EDT 8:31 PM EDT
Astronomical Twilight 5:46 AM EDT 8:59 PM EDT
Moon 4:28 AM EDT (4/6) 4:24 PM EDT (4/6)
Length of Visible Light 13h 21m
Length of Day
12h 34m
Waning Crescent, 15% of the Moon is Illuminated
Apr 6
Waning Crescent
Apr 10
New
Apr 18
First Quarter
Apr 25
Full
May 2
Last Quarter

Hourly Weather History & Observations

Time (EDT) Temp. Dew Point Humidity Pressure Visibility Wind Dir Wind Speed Gust Speed Precip Events Conditions
12:40 AM 66.2 °F 62.6 °F 88% 29.93 in 10.0 mi NNW 3.5 mph - N/A   Mostly Cloudy
12:53 AM 66.9 °F 64.0 °F 90% 29.93 in 10.0 mi North 6.9 mph - N/A   Mostly Cloudy
1:38 AM 66.2 °F 62.6 °F 88% 29.93 in 10.0 mi NNW 11.5 mph - N/A   Mostly Cloudy
1:53 AM 64.9 °F 61.0 °F 87% 29.93 in 10.0 mi NNW 12.7 mph - N/A   Mostly Cloudy
2:53 AM 64.0 °F 60.1 °F 87% 29.93 in 10.0 mi NNW 13.8 mph - N/A   Mostly Cloudy
3:53 AM 63.0 °F 59.0 °F 87% 29.93 in 10.0 mi NW 11.5 mph - N/A   Mostly Cloudy
4:53 AM 61.0 °F 57.9 °F 90% 29.93 in 10.0 mi NNW 11.5 mph - N/A   Mostly Cloudy
5:53 AM 59.0 °F 57.0 °F 93% 29.96 in 10.0 mi NW 12.7 mph - N/A   Scattered Clouds
6:53 AM 57.9 °F 55.9 °F 93% 29.96 in 10.0 mi NNW 9.2 mph - N/A   Partly Cloudy
7:53 AM 59.0 °F 55.9 °F 90% 30.01 in 10.0 mi NW 12.7 mph - N/A   Partly Cloudy
8:53 AM 62.1 °F 57.0 °F 84% 30.02 in 10.0 mi NW 12.7 mph - N/A   Scattered Clouds
9:53 AM 66.0 °F 57.9 °F 75% 30.01 in 10.0 mi NNW 12.7 mph - N/A   Partly Cloudy
10:53 AM 72.0 °F 60.1 °F 66% 30.02 in 10.0 mi NNW 11.5 mph - N/A   Scattered Clouds
11:53 AM 72.0 °F 61.0 °F 68% 30.04 in 10.0 mi North 10.4 mph - N/A   Mostly Cloudy
12:53 PM 73.9 °F 62.1 °F 66% 30.04 in 10.0 mi North 12.7 mph - N/A   Mostly Cloudy
1:53 PM 75.0 °F 61.0 °F 62% 30.02 in 10.0 mi NNE 11.5 mph - N/A   Mostly Cloudy
2:53 PM 78.1 °F 59.0 °F 52% 30.02 in 10.0 mi NNE 16.1 mph 25.3 mph N/A   Mostly Cloudy
3:53 PM 75.0 °F 57.9 °F 55% 30.02 in 10.0 mi NNE 17.3 mph 20.7 mph N/A   Mostly Cloudy
4:53 PM 77.0 °F 57.0 °F 50% 30.02 in 10.0 mi NE 15.0 mph 20.7 mph N/A   Scattered Clouds
5:53 PM 75.9 °F 57.0 °F 52% 30.03 in 10.0 mi NE 13.8 mph - N/A   Scattered Clouds
6:53 PM 73.9 °F 57.9 °F 57% 30.04 in 10.0 mi NE 15.0 mph - N/A   Scattered Clouds
7:53 PM 72.0 °F 57.0 °F 59% 30.06 in 10.0 mi NNE 9.2 mph - N/A   Scattered Clouds
8:53 PM 72.0 °F 60.1 °F 66% 30.06 in 10.0 mi NE 9.2 mph - N/A   Partly Cloudy
9:53 PM 72.0 °F 60.1 °F 66% 30.07 in 10.0 mi NE 9.2 mph - N/A   Partly Cloudy
10:53 PM 72.0 °F 61.0 °F 68% 30.08 in 10.0 mi ENE 9.2 mph - N/A   Mostly Cloudy
11:53 PM 72.0 °F 60.1 °F 66% 30.09 in 10.0 mi East 11.5 mph - N/A   Mostly Cloudy